Back to catalog

GHGSAT-C4

AliveScienceSSO
NORAD 52746·PAYLOAD·🇨🇦 Canada

Launched May 25, 2022 from Cape Canaveral Space Force Station

Loading…

Next Passes (next 24 hours)

TLE

FreshSource: Space-Track

Epoch: Sep 14, 2026, 13:51 UTC

1 52746U 22057Q   26257.57733748  .00005756  00000-0  17027-3 0  9999
2 52746  97.6653  45.4603 0006933 138.0508 222.1267 15.35312509239257

Track GHGSAT-C4 in real time with AllMySat

Download on the App Store